Total_Precipitation_Accumulation
0.01 0.02 0.05 0.05 0.05 0.06 0.08 0.12 0.19 0.29 0.24 0.21 0.34 0.55 0.67 0.70 0.76 0.92 1.08 1.07 1.11 1.21 1.58 2.04 2.57 3.09 3.78 4.69 5.61 5.96 5.71 5.13 4.68 4.27 3.78 3.41 3.07 2.82 2.70 2.39 2.08 1.99 1.92 1.87
0.03 0.04 0.03 0.03 0.04 0.07 0.10 0.14 0.19 0.26 0.20 0.22 0.36 0.59 0.78 0.88 0.97 0.93 0.98 1.08 1.03 1.22 1.64 2.14 2.74 3.17 3.52 4.05 4.79 5.08 4.74 4.10 3.51 3.24 3.08 2.89 2.79 2.48 2.29 2.19 2.09 1.82 1.82 1.78
0.03 0.05 0.03 0.03 0.04 0.08 0.11 0.13 0.19 0.23 0.16 0.23 0.39 0.77 1.05 1.11 0.91 0.73 0.66 0.78 0.79 0.95 1.47 2.21 2.75 3.05 3.30 3.50 3.49 3.60 3.50 3.00 2.65 2.55 2.54 2.49 2.56 2.39 2.15 2.03 1.89 1.65 1.58 1.49
0.03 0.03 0.02 0.03 0.05 0.07 0.11 0.08 0.09 0.12 0.16 0.35 0.46 1.08 1.32 1.15 0.99 0.77 0.62 0.63 0.64 0.86 1.32 2.08 2.37 2.49 2.53 2.62 2.42 2.41 2.50 2.33 2.27 2.17 2.20 2.08 1.93 1.88 1.78 1.78 1.74 1.64 1.52 1.43
0.04 0.03 0.02 0.03 0.04 0.07 0.10 0.07 0.08 0.12 0.18 0.35 0.57 0.97 1.34 1.21 1.12 0.82 0.62 0.58 0.67 0.75 1.02 1.37 1.44 1.57 1.65 1.72 1.76 1.92 2.18 2.21 2.09 2.03 2.15 2.17 1.89 1.72 1.62 1.64 1.72 1.62 1.52 1.42
0.05 0.05 0.04 0.03 0.04 0.05 0.08 0.10 0.15 0.29 0.43 0.76 0.77 0.90 1.33 1.18 0.92 0.66 0.55 0.56 0.51 0.53 0.71 0.91 0.97 1.02 1.09 1.15 1.27 1.48 1.89 2.08 1.94 1.88 1.94 1.92 1.85 1.78 1.64 1.54 1.55 1.54 1.49 1.49
0.10 0.09 0.09 0.07 0.06 0.08 0.08 0.12 0.35 0.74 1.16 1.26 0.78 0.88 1.20 0.82 0.57 0.43 0.37 0.40 0.43 0.55 0.64 0.74 0.89 0.95 0.87 0.84 0.97 1.18 1.47 1.60 1.56 1.61 1.73 1.81 1.87 1.81 1.64 1.56 1.47 1.45 1.38 1.41
0.15 0.16 0.12 0.08 0.06 0.07 0.10 0.12 0.25 0.46 0.60 0.73 0.73 1.16 1.25 0.70 0.46 0.35 0.32 0.33 0.44 0.51 0.49 0.51 0.61 0.63 0.61 0.68 0.77 0.94 1.09 1.16 1.25 1.36 1.54 1.68 1.70 1.69 1.64 1.69 1.55 1.44 1.33 1.31
0.07 0.07 0.06 0.05 0.06 0.07 0.08 0.09 0.11 0.14 0.21 0.49 0.82 1.08 0.97 0.63 0.43 0.33 0.32 0.31 0.40 0.41 0.35 0.34 0.36 0.39 0.44 0.59 0.71 0.78 0.88 0.98 1.09 1.20 1.41 1.55 1.57 1.54 1.56 1.62 1.55 1.39 1.39 1.34
0.04 0.03 0.04 0.05 0.06 0.07 0.08 0.09 0.08 0.10 0.22 0.45 0.78 1.14 1.14 0.82 0.63 0.53 0.40 0.32 0.36 0.34 0.29 0.31 0.31 0.30 0.30 0.37 0.52 0.67 0.75 0.90 1.06 1.14 1.17 1.24 1.42 1.40 1.36 1.30 1.28 1.35 1.37 1.35
0.03 0.03 0.04 0.06 0.07 0.08 0.08 0.08 0.08 0.09 0.10 0.25 0.60 0.92 0.76 0.63 0.51 0.53 0.47 0.41 0.37 0.35 0.33 0.29 0.33 0.33 0.30 0.34 0.44 0.58 0.66 0.77 0.88 0.91 0.94 1.06 1.17 1.17 1.13 1.12 1.10 1.20 1.22 1.25
0.04 0.05 0.05 0.08 0.09 0.09 0.08 0.07 0.09 0.11 0.12 0.15 0.32 0.52 0.41 0.42 0.41 0.47 0.49 0.51 0.50 0.50 0.47 0.41 0.42 0.39 0.40 0.40 0.42 0.53 0.53 0.57 0.63 0.70 0.77 0.87 0.99 0.99 0.99 1.02 1.15 1.23 1.21 1.14
0.04 0.05 0.08 0.18 0.22 0.17 0.10 0.08 0.11 0.12 0.12 0.14 0.33 0.54 0.36 0.38 0.45 0.46 0.43 0.53 0.55 0.47 0.50 0.60 0.58 0.44 0.42 0.38 0.41 0.46 0.46 0.51 0.59 0.64 0.67 0.72 0.85 0.98 1.03 1.08 1.15 1.23 1.25 1.20
0.05 0.06 0.07 0.18 0.24 0.23 0.18 0.14 0.13 0.14 0.14 0.14 0.23 0.43 0.38 0.37 0.46 0.50 0.40 0.46 0.54 0.51 0.52 0.66 0.71 0.49 0.41 0.41 0.44 0.46 0.46 0.44 0.45 0.53 0.62 0.70 0.83 1.00 1.12 1.16 1.22 1.29 1.32 1.29
0.07 0.06 0.06 0.06 0.12 0.18 0.20 0.17 0.14 0.12 0.12 0.17 0.23 0.35 0.43 0.50 0.52 0.46 0.47 0.49 0.48 0.53 0.53 0.51 0.54 0.48 0.46 0.47 0.46 0.49 0.53 0.52 0.51 0.64 0.72 0.79 0.92 1.00 1.09 1.22 1.32 1.42 1.44 1.37
0.09 0.09 0.07 0.07 0.12 0.14 0.15 0.18 0.13 0.09 0.09 0.14 0.24 0.38 0.46 0.47 0.56 0.56 0.50 0.45 0.49 0.56 0.58 0.66 0.66 0.62 0.62 0.61 0.56 0.57 0.62 0.64 0.75 0.87 0.93 0.98 1.05 1.13 1.16 1.23 1.28 1.41 1.45 1.49
0.17 0.17 0.17 0.15 0.16 0.17 0.18 0.17 0.13 0.12 0.15 0.19 0.25 0.38 0.48 0.54 0.64 0.71 0.72 0.59 0.56 0.67 0.71 0.82 0.87 0.85 0.83 0.76 0.70 0.70 0.74 0.83 0.95 1.08 1.24 1.28 1.28 1.33 1.36 1.38 1.39 1.42 1.55 1.65
0.25 0.27 0.23 0.21 0.25 0.31 0.23 0.19 0.17 0.16 0.18 0.21 0.33 0.46 0.58 0.66 0.67 0.77 0.87 0.78 0.67 0.66 0.72 0.86 0.97 0.98 0.89 0.87 0.88 0.95 1.00 1.08 1.21 1.30 1.43 1.56 1.61 1.67 1.72 1.78 1.76 1.77 1.81 1.89
0.28 0.37 0.35 0.33 0.40 0.37 0.31 0.27 0.24 0.26 0.35 0.36 0.47 0.68 0.78 0.79 0.86 1.00 0.93 0.80 0.77 0.79 0.82 0.99 1.01 0.99 0.98 1.08 1.12 1.13 1.19 1.26 1.44 1.60 1.71 1.81 1.88 1.91 1.91 1.92 2.02 2.10 2.20 2.21
0.34 0.36 0.44 0.41 0.47 0.52 0.48 0.41 0.39 0.48 0.89 0.76 0.75 0.76 0.77 0.81 1.07 1.09 0.83 0.74 0.75 0.80 0.95 1.07 1.11 1.10 1.16 1.39 1.43 1.46 1.51 1.58 1.65 1.70 1.80 1.96 2.07 2.13 2.11 2.13 2.27 2.43 2.55 2.52
0.58 0.58 0.53 0.49 0.54 0.58 0.55 0.49 0.55 1.00 1.40 1.17 1.04 0.98 0.98 1.12 1.11 1.09 0.94 0.80 0.78 0.81 0.90 1.03 1.07 1.11 1.18 1.38 1.54 1.76 1.91 1.93 1.92 1.96 1.98 2.02 2.13 2.25 2.29 2.35 2.41 2.57 2.68 2.66
0.83 0.84 0.81 0.76 0.88 0.94 0.62 0.64 0.97 1.26 1.10 1.20 1.33 1.35 1.29 1.26 1.09 0.97 0.91 0.87 0.80 0.80 0.84 0.95 1.10 1.17 1.27 1.44 1.69 1.89 2.04 2.16 2.23 2.20 2.28 2.28 2.29 2.22 2.20 2.38 2.52 2.64 2.77 2.73
0.99 1.01 1.02 1.05 1.17 1.05 0.80 0.88 0.94 0.92 1.05 1.16 1.25 1.37 1.42 1.39 1.38 1.18 1.07 1.03 0.95 0.89 0.87 0.92 1.02 1.16 1.27 1.36 1.58 1.94 2.03 2.05 2.07 2.14 2.17 2.24 2.26 2.28 2.29 2.43 2.59 2.73 2.77 2.68
1.02 0.96 1.07 1.23 1.30 1.17 1.08 1.08 1.09 1.06 1.13 1.16 1.21 1.28 1.35 1.35 1.43 1.31 1.16 1.03 0.95 0.90 0.90 0.95 1.01 1.13 1.22 1.18 1.30 1.49 1.69 1.80 1.81 1.80 1.83 1.84 1.96 2.08 2.24 2.42 2.48 2.56 2.63 2.63
1.10 1.04 1.13 1.47 1.63 1.60 1.48 1.44 1.36 1.27 1.35 1.46 1.41 1.38 1.41 1.31 1.28 1.25 1.07 0.96 0.90 0.88 0.84 0.90 1.02 1.02 1.06 1.13 1.14 1.17 1.24 1.44 1.59 1.61 1.63 1.69 1.79 1.90 2.07 2.29 2.43 2.38 2.40 2.56
1.37 1.26 1.25 1.53 1.59 1.74 1.77 1.58 1.45 1.36 1.47 1.51 1.46 1.37 1.32 1.27 1.24 1.13 0.99 0.90 0.88 0.86 0.85 0.89 0.95 0.95 0.95 1.02 1.04 1.08 1.20 1.39 1.49 1.45 1.46 1.49 1.52 1.62 1.75 1.92 2.04 2.02 1.80 1.83